Weather History for CYEG - March, 2013

Change the Weather History Date:

Friday, March 1, 2013

  Actual Average Record
Temperature  
Mean Temperature 31 °F -  
Max Temperature 40 °F 33 °F 41 °F (2001)
Min Temperature 22 °F 12 °F -40 °F (2011)
Degree Days  
Heating Degree Days 34    
Moisture  
Dew Point 26 °F    
Average Humidity 78    
Maximum Humidity 93    
Minimum Humidity 64    
Precipitation  
Precipitation 0.00 in 0.02 in - ()
Sea Level Pressure  
Sea Level Pressure 30.06 in    
Wind  
Wind Speed 7 mph ()    
Max Wind Speed 17 mph    
Max Gust Speed -    
Visibility 15.1 miles    
Events      
Averages and records for this station are not official NWS values.
T = Trace of Precipitation, MM = Missing Value Source: Averaged Metar Reports

Daily Weather History Graph

Daily Weather History Graph

Search for Another Location

Airport or City:

Trip Planner

Search our weather history database for the weather conditions in past years. The results will help you decide how hot, cold, wet, or windy it might be!

Date:

Astronomy

Mar. 01, 2013 Rise Set
Actual Time 7:20 AM MST 6:13 PM MST
Civil Twilight 6:46 AM MST 6:48 PM MST
Nautical Twilight 6:05 AM MST 7:28 PM MST
Astronomical Twilight 5:25 AM MST 8:09 PM MST
Moon 11:38 PM MST (3/1) 8:28 AM MST (3/1)
Length of Visible Light 12h 02m
Length of Day
10h 52m
Waning Gibbous, 83% of the Moon is Illuminated
Mar 1
Waning Gibbous
Mar 4
Last Quarter
Mar 11
New
Mar 19
First Quarter
Mar 27
Full

Hourly Weather History & Observations

Time (MST) Temp. Windchill Dew Point Humidity Pressure Visibility Wind Dir Wind Speed Gust Speed Precip Events Conditions
12:00 AM 28.4 °F 17.0 °F 17.6 °F 64% 29.99 in 15.0 mi SSE 15.0 mph - N/A   Overcast
1:00 AM 28.4 °F 18.5 °F 17.6 °F 64% 29.98 in 15.0 mi SSE 11.5 mph - N/A   Overcast
2:00 AM 28.4 °F 18.5 °F 19.4 °F 69% 29.98 in 15.0 mi SSE 11.5 mph - N/A   Overcast
3:00 AM 28.4 °F 20.4 °F 21.2 °F 74% 29.98 in 20.0 mi SSE 8.1 mph - N/A   Overcast
3:56 AM 28.4 °F 22.2 °F 21.2 °F 74% 29.98 in 15.0 mi South 5.8 mph - N/A   Overcast
4:00 AM 26.6 °F 21.2 °F 21.2 °F 80% 29.99 in 15.0 mi South 4.6 mph - N/A   Overcast
5:00 AM 26 °F - 21 °F 72% 30.00 in 15 mi SSE 2.3 mph - -   Overcast
5:00 AM 24.8 °F 20.5 °F 21.2 °F 86% 30.00 in 15.0 mi SSE 3.5 mph - N/A   Overcast
6:00 AM 24.8 °F 20.5 °F 19.4 °F 80% 30.03 in 15.0 mi South 3.5 mph - N/A   Overcast
7:00 AM 24.8 °F 19.1 °F 21.2 °F 86% 30.04 in 15.0 mi South 4.6 mph - N/A   Overcast
8:00 AM 26.6 °F 20.0 °F 23.0 °F 86% 30.05 in 12.0 mi South 5.8 mph - N/A   Overcast
9:00 AM 26.6 °F 20.0 °F 23.0 °F 86% 30.06 in 15.0 mi South 5.8 mph - N/A   Overcast
10:00 AM 30.2 °F 22.6 °F 24.8 °F 80% 30.07 in 15.0 mi SSW 8.1 mph - N/A   Mostly Cloudy
11:00 AM 34 °F - 26 °F 64% 30.08 in 15 mi Calm Calm - -   Mostly Cloudy
11:00 AM 33.8 °F - 26.6 °F 75% 30.08 in 15.0 mi West 2.3 mph - N/A   Mostly Cloudy
12:00 PM 37.4 °F 30.8 °F 28.4 °F 70% 30.08 in 15.0 mi WSW 9.2 mph - N/A   Mostly Cloudy
1:00 PM 39.2 °F 33.6 °F 28.4 °F 65% 30.09 in 15.0 mi West 8.1 mph - N/A   Overcast
2:00 PM 37.4 °F 32.8 °F 30.2 °F 75% 30.09 in 15.0 mi WSW 5.8 mph - N/A   Mostly Cloudy
3:00 PM 37.4 °F 29.8 °F 28.4 °F 70% 30.09 in 15.0 mi WSW 11.5 mph - N/A   Overcast
4:00 PM 37.4 °F 27.8 °F 30.2 °F 75% 30.09 in 15.0 mi SW 17.3 mph - N/A   Overcast
5:00 PM 35 °F - 32 °F 83% 30.11 in 15 mi SW 8.1 mph - -   Mostly Cloudy
5:00 PM 35.6 °F 29.2 °F 32.0 °F 87% 30.10 in 15.0 mi SW 8.1 mph - N/A   Mostly Cloudy
6:00 PM 33.8 °F 29.6 °F 32.0 °F 93% 30.11 in 15.0 mi SSW 4.6 mph - N/A   Overcast
7:00 PM 33.8 °F 27.0 °F 32.0 °F 93% 30.12 in 15.0 mi South 8.1 mph - N/A   Mostly Cloudy
7:54 PM 33.8 °F 24.8 °F 32.0 °F 93% 30.10 in 15.0 mi South 12.7 mph - N/A   Overcast
8:00 PM 35.6 °F 28.6 °F 32.0 °F 87% 30.11 in 15.0 mi SSW 9.2 mph - N/A   Overcast
8:50 PM 35.6 °F - 30.2 °F 81% 30.12 in 15.0 mi Variable 2.3 mph - N/A   Overcast
9:00 PM 35.6 °F - 30.2 °F 81% 30.12 in 15.0 mi West 2.3 mph - N/A   Overcast
10:00 PM 35.6 °F 31.7 °F 28.4 °F 75% 30.10 in 15.0 mi SW 4.6 mph - N/A   Mostly Cloudy
11:00 PM 35 °F - 29 °F 69% 30.10 in 15 mi West 2.3 mph - -   Overcast
11:00 PM 35.6 °F - 28.4 °F 75% 30.10 in 15.0 mi WSW 2.3 mph - N/A   Overcast